Weather History for Rhinelander, WI

Change the Weather History Date:

Wednesday, October 30, 2013

  Actual Average Record
Temperature  
Mean Temperature 42 °F 39 °F  
Max Temperature 48 °F 47 °F 79 °F (1950)
Min Temperature 35 °F 30 °F 2 °F (1925)
Degree Days  
Heating Degree Days 23 26  
Month to date heating degree days 633 635  
Since 1 July heating degree days 1085 1067  
Cooling Degree Days 0 0  
Month to date cooling degree days 0 0  
Year to date cooling degree days 281 259  
Moisture  
Dew Point 41 °F    
Average Humidity 96    
Maximum Humidity 100    
Minimum Humidity 92    
Precipitation  
Precipitation 0.09 in 0.07 in 0.75 in (1942)
Month to date precipitation 3.93 2.97  
Year to date precipitation 32.89 28.05  
Snow  
Snow 0.00 in - 1.00 in (1932)
Month to date snowfall 2.2  
Since 1 July snowfall 2.2  
Since 1 September snowfall 2.2  
Snow Depth 0.00 in    
Sea Level Pressure  
Sea Level Pressure 29.98 in    
Wind  
Wind Speed 5 mph (SSE)    
Max Wind Speed 13 mph    
Max Gust Speed 17 mph    
Visibility 2 miles    
Events Fog , Rain    
T = Trace of Precipitation, MM = Missing Value Source: NWS Daily Summary

Daily Weather History Graph

Daily Weather History Graph

Search for Another Location

Airport:

Trip Planner

Search our weather history database for the weather conditions in past years. The results will help you decide how hot, cold, wet, or windy it might be!

Date:

Astronomy

Oct. 30, 2013 Rise Set
Actual Time 7:35 AM CDT 5:47 PM CDT
Civil Twilight 7:04 AM CDT 6:18 PM CDT
Nautical Twilight 6:29 AM CDT 6:52 PM CDT
Astronomical Twilight 5:54 AM CDT 7:27 PM CDT
Moon 3:12 AM CDT (10/30) 3:42 PM CDT (10/30)
Length of Visible Light 11h 13m
Length of Day
10h 11m
Waning Crescent, 17% of the Moon is Illuminated
Oct 30
Waning Crescent
Nov 3
New
Nov 9
First Quarter
Nov 17
Full
Nov 25
Last Quarter

Hourly Weather History & Observations

Time (CDT) Temp. Windchill Dew Point Humidity Pressure Visibility Wind Dir Wind Speed Gust Speed Precip Events Conditions
12:53 AM 35.1 °F - 34.0 °F 96% 30.19 in 6.0 mi Calm Calm - 0.01 in Rain Light Rain
1:53 AM 36.0 °F - 35.1 °F 97% 30.18 in 4.0 mi Calm Calm - 0.00 in   Overcast
2:12 AM 35.6 °F 32.8 °F 35.6 °F 100% 30.11 in 4.0 mi SSE 3.5 mph - N/A   Overcast
2:27 AM 35.6 °F - 35.6 °F 100% 30.11 in 1.8 mi Calm Calm - N/A   Overcast
2:43 AM 35.6 °F 31.7 °F 35.6 °F 100% 30.11 in 0.8 mi South 4.6 mph - N/A   Mist
2:53 AM 36.0 °F 33.3 °F 35.1 °F 97% 30.16 in 0.5 mi South 3.5 mph - 0.00 in Fog , Rain Light Rain
3:53 AM 36.0 °F - 36.0 °F 100% 30.15 in 0.8 mi Calm Calm - 0.01 in Rain Light Rain
4:18 AM 35.6 °F 32.8 °F 35.6 °F 100% 30.09 in 0.8 mi SE 3.5 mph - 0.01 in Rain Light Rain
4:26 AM 35.6 °F - 35.6 °F 100% 30.09 in 1.2 mi Calm Calm - 0.01 in Rain Light Rain
4:53 AM 36.0 °F - 36.0 °F 100% 30.14 in 1.8 mi Calm Calm - 0.01 in Rain Light Rain
5:20 AM 35.6 °F - 35.6 °F 100% 30.09 in 2.0 mi Calm Calm - 0.00 in Rain Light Rain
5:35 AM 35.6 °F - 35.6 °F 100% 30.09 in 1.8 mi Calm Calm - 0.00 in Rain Light Rain
5:53 AM 36.0 °F 33.3 °F 36.0 °F 100% 30.15 in 1.8 mi East 3.5 mph - 0.00 in Rain Light Rain
6:00 AM 37.4 °F 34.9 °F 37.4 °F 100% 30.10 in 2.0 mi East 3.5 mph - 0.00 in   Overcast
6:53 AM 36.0 °F 33.3 °F 36.0 °F 100% 30.13 in 2.0 mi ESE 3.5 mph - 0.00 in   Overcast
7:27 AM 37.4 °F - 35.6 °F 93% 30.07 in 3.0 mi Calm Calm - 0.01 in Rain Light Rain
7:53 AM 37.0 °F 33.3 °F 36.0 °F 96% 30.11 in 2.5 mi SE 4.6 mph - 0.01 in   Overcast
8:10 AM 37.4 °F - 37.4 °F 100% 30.06 in 3.0 mi Calm Calm - 0.00 in Rain Light Rain
8:22 AM 37.4 °F 33.8 °F 37.4 °F 100% 30.07 in 2.0 mi SSE 4.6 mph - 0.00 in   Overcast
8:53 AM 37.9 °F 35.5 °F 37.0 °F 97% 30.11 in 2.0 mi SE 3.5 mph - 0.00 in   Overcast
9:00 AM 37.4 °F 34.9 °F 37.4 °F 100% 30.06 in 1.8 mi SSE 3.5 mph - N/A   Overcast
9:53 AM 39.0 °F 35.7 °F 37.9 °F 96% 30.10 in 0.8 mi ESE 4.6 mph - N/A   Overcast
10:30 AM 39.2 °F 35.0 °F 39.2 °F 100% 30.05 in 1.0 mi SE 5.8 mph - N/A   Overcast
10:43 AM - - - N/A% 30.05 in - North - - N/A   Unknown
10:53 AM - - - N/A% 30.05 in - North - - N/A   Unknown
11:39 AM 39.2 °F 37.0 °F 39.2 °F 100% 30.04 in 2.0 mi ESE 3.5 mph - N/A   Overcast
11:50 AM 39.2 °F 35.9 °F 39.2 °F 100% 30.03 in 1.8 mi ESE 4.6 mph - N/A   Overcast
11:53 AM 39.9 °F 36.7 °F 39.9 °F 100% 30.07 in 2.0 mi SE 4.6 mph - N/A   Overcast
12:15 PM 39.2 °F 34.2 °F 39.2 °F 100% 30.02 in 1.5 mi SE 6.9 mph - N/A   Overcast
12:53 PM 39.9 °F 35.8 °F 39.9 °F 100% 30.05 in 1.0 mi SE 5.8 mph - 0.01 in Rain Light Rain
1:33 PM 42.8 °F 38.6 °F 42.8 °F 100% 29.96 in 2.0 mi ESE 6.9 mph - 0.00 in   Overcast
1:53 PM 42.1 °F 37.1 °F 42.1 °F 100% 30.01 in 2.5 mi SE 8.1 mph - 0.00 in   Overcast
2:33 PM 42.8 °F 38.6 °F 42.8 °F 100% 29.94 in 1.5 mi ESE 6.9 mph - N/A   Overcast
2:53 PM 44.1 °F 40.8 °F 44.1 °F 100% 29.97 in 1.2 mi SE 5.8 mph - N/A   Overcast
3:50 PM 44.6 °F 40.7 °F 44.6 °F 100% 29.90 in 0.8 mi ESE 6.9 mph - N/A   Overcast
3:53 PM 45.0 °F 41.2 °F 45.0 °F 100% 29.94 in 0.8 mi SE 6.9 mph - N/A   Overcast
4:40 PM 46.4 °F 44.3 °F 46.4 °F 100% 29.87 in 1.0 mi ESE 4.6 mph - N/A   Overcast
4:48 PM 46.4 °F 45.2 °F 46.4 °F 100% 29.87 in 0.8 mi ESE 3.5 mph - N/A   Overcast
4:53 PM 46.0 °F 43.9 °F 46.0 °F 100% 29.91 in 0.8 mi SE 4.6 mph - N/A   Overcast
5:04 PM 46.4 °F 44.3 °F 46.4 °F 100% 29.86 in 1.0 mi SE 4.6 mph - N/A   Overcast
5:51 PM 46.4 °F 43.5 °F 46.4 °F 100% 29.85 in 2.5 mi SSE 5.8 mph - 0.00 in Rain Light Rain
5:53 PM 46.0 °F 43.1 °F 46.0 °F 100% 29.89 in 2.5 mi SSE 5.8 mph - 0.00 in Rain Light Rain
6:12 PM 46.4 °F 43.5 °F 46.4 °F 100% 29.85 in 1.5 mi SSE 5.8 mph - 0.00 in   Overcast
6:38 PM 46.4 °F 43.5 °F 46.4 °F 100% 29.85 in 2.0 mi SSE 5.8 mph - 0.03 in Rain Light Rain
6:53 PM 46.9 °F - 46.9 °F 100% 29.88 in 2.5 mi SSE 6.9 mph - 0.03 in   Overcast
7:53 PM 46.9 °F - 46.9 °F 100% 29.84 in 2.0 mi Variable 5.8 mph - N/A   Overcast
8:11 PM 46.4 °F 42.9 °F 46.4 °F 100% 29.80 in 1.8 mi South 6.9 mph - N/A   Overcast
8:19 PM 46.4 °F 42.9 °F 46.4 °F 100% 29.80 in 2.0 mi South 6.9 mph - N/A   Overcast
8:27 PM 46.4 °F 43.5 °F 46.4 °F 100% 29.81 in 1.8 mi South 5.8 mph - N/A   Overcast
8:53 PM 46.9 °F - 46.9 °F 100% 29.83 in 1.8 mi South 3.5 mph - 0.01 in   Overcast
9:43 PM 48.2 °F - 48.2 °F 100% 29.78 in 0.8 mi SSW 4.6 mph - N/A   Overcast
9:53 PM 48.0 °F - 48.0 °F 100% 29.82 in 0.5 mi SSW 3.5 mph - N/A Fog Fog
10:33 PM 48.2 °F - 48.2 °F 100% 29.78 in 0.2 mi South 4.6 mph - N/A Fog Fog
10:53 PM 48.0 °F - 48.0 °F 100% 29.77 in 0.2 mi South 5.8 mph - N/A Fog Fog
11:24 PM 48.2 °F - 48.2 °F 100% 29.76 in 0.5 mi SW 3.5 mph - N/A Fog Fog
11:53 PM 48.0 °F - 48.0 °F 100% 29.77 in 0.5 mi SSW 5.8 mph - N/A Fog Fog